Regional Weather Roundup
Issued by NWS

Home | Current Version | Previous Version | Graphics & Text | Print | Product List | Glossary On
Versions: 1 2 3 4 5 6 7 8 9 10 11 12 13 14 15 16 17 18 19 20 21 22 23 24 25 26 27 28 29 30 31 32 33 34 35 36 37 38 39 40 41 42 43 44 45 46 47 48 49 50
000
ASUS43 KFSD 240502
RWRSD

WEATHER ROUNDUP FOR SOUTH DAKOTA
NATIONAL WEATHER SERVICE SIOUX FALLS SD
1200 AM CDT WED MAY 24 2017

NOTE: "FAIR" INDICATES FEW OR NO CLOUDS BELOW 12,000 FEET WITH NO
SIGNIFICANT WEATHER AND/OR OBSTRUCTIONS TO VISIBILITY.


SDZ001>005-009-010-012>017-240600-
NORTHWEST AND NORTH CENTRAL SOUTH DAKOTA

CITY           SKY/WX    TMP DP  RH WIND       PRES   REMARKS
BUFFALO          N/A     50  37  61 SE9       29.87F
FAITH            N/A     47  36  65 SE9       29.96F
MOBRIDGE       CLOUDY    41  35  79 CALM      29.94F
$$

SDZ012>016-024>037-041>051-057-063-072>074-240600-
SOUTHWEST AND SOUTH CENTRAL SOUTH DAKOTA

CITY           SKY/WX    TMP DP  RH WIND       PRES   REMARKS
RAPID CTY ARPT CLOUDY    41  34  76 CALM      29.99F
PIERRE         CLEAR     44  37  76 N3        29.95F
CUSTER         CLOUDY    40  29  64 N3        30.01F
ELLSWORTH AFB  CLOUDY    47  37  65 S8        29.97F
PHILIP         CLEAR     37  35  92 W6        29.98F
PINE RIDGE     CLEAR     41  36  82 S3        30.01F
SPEARFISH      FAIR      45  36  70 SE5       29.97F
WINNER         FAIR      46  40  79 W3        29.96F
$$

SDZ004>011-016>023-039-040-240600-
NORTHEAST SOUTH DAKOTA

CITY           SKY/WX    TMP DP  RH WIND       PRES   REMARKS
ABERDEEN       PTCLDY    42  39  89 NW6       29.93F
WATERTOWN      PTCLDY    42  40  92 N3        29.89F
BROOKINGS      CLEAR     47  45  93 NW6       29.89F
SISSETON         N/A     43  42  97 NW8       29.90F
$$

SDZ017-020-022-023-036>040-048>070-240600-
SOUTHEAST SOUTH DAKOTA

CITY           SKY/WX    TMP DP  RH WIND       PRES   REMARKS
SIOUX FALLS    CLOUDY    50  47  89 N9        29.87F
HURON          CLEAR     41  40  96 NW5       29.92F
MITCHELL       CLEAR     46  43  89 NW9       29.93F
YANKTON        CLEAR     48  45  89 NW12      29.89
$$

ABBREVIATIONS USED IN REMARKS
   TC - TEMPERATURE IN CELSIUS
  WCI - WIND CHILL INDEX
   HX - HEAT INDEX
  VSB - VISIBILITY





USA.gov is the U.S. government's official web portal to all federal, state and local government web resources and services.